TimeCDT,TemperatureF,Dew PointF,Humidity,Sea Level PressureIn,VisibilityMPH,Wind Direction,Wind SpeedMPH,Gust SpeedMPH,PrecipitationIn,Events,Conditions,WindDirDegrees,DateUTC
12:15 AM,43.0,41.0,93,30.31,10.0,Calm,Calm,-,N/A,,Clear,0,2012-09-14 05:15:00
12:35 AM,41.0,39.9,96,30.31,10.0,Calm,Calm,-,N/A,,Clear,0,2012-09-14 05:35:00
12:55 AM,41.2,40.3,97,30.31,10.0,Calm,Calm,-,N/A,,Clear,0,2012-09-14 05:55:00
1:15 AM,40.6,40.1,98,30.30,10.0,Calm,Calm,-,N/A,,Clear,0,2012-09-14 06:15:00
1:35 AM,41.9,40.1,93,30.31,10.0,Calm,Calm,-,N/A,,Clear,0,2012-09-14 06:35:00
2:15 AM,40.1,39.2,97,30.30,10.0,Calm,Calm,-,N/A,,Clear,0,2012-09-14 07:15:00
2:35 AM,40.3,39.2,96,30.30,10.0,Calm,Calm,-,N/A,,Clear,0,2012-09-14 07:35:00
2:55 AM,40.8,39.9,97,30.30,10.0,Calm,Calm,-,N/A,,Clear,0,2012-09-14 07:55:00
3:15 AM,42.3,41.2,96,30.30,10.0,Calm,Calm,-,N/A,,Clear,0,2012-09-14 08:15:00
3:35 AM,41.0,40.1,97,30.30,10.0,Calm,Calm,-,N/A,,Clear,0,2012-09-14 08:35:00
3:55 AM,41.2,40.3,97,30.31,10.0,Calm,Calm,-,N/A,,Clear,0,2012-09-14 08:55:00
4:15 AM,41.7,40.8,97,30.31,10.0,Calm,Calm,-,N/A,,Scattered Clouds,0,2012-09-14 09:15:00
4:35 AM,42.1,41.0,96,30.31,7.0,Calm,Calm,-,N/A,,Mostly Cloudy,0,2012-09-14 09:35:00
4:55 AM,43.0,41.4,94,30.32,10.0,Calm,Calm,-,N/A,,Overcast,0,2012-09-14 09:55:00
5:15 AM,44.1,42.4,94,30.32,10.0,Calm,Calm,-,N/A,,Overcast,0,2012-09-14 10:15:00
5:35 AM,41.9,41.0,97,30.30,10.0,Calm,Calm,-,N/A,,Scattered Clouds,0,2012-09-14 10:35:00
5:55 AM,42.3,41.5,97,30.30,10.0,Calm,Calm,-,N/A,,Scattered Clouds,0,2012-09-14 10:55:00
6:15 AM,41.0,40.3,97,30.31,10.0,Calm,Calm,-,N/A,,Mostly Cloudy,0,2012-09-14 11:15:00
6:35 AM,40.8,40.5,99,30.31,1.5,Calm,Calm,-,N/A,,Mostly Cloudy,0,2012-09-14 11:35:00
6:55 AM,40.8,40.5,99,30.31,10.0,Calm,Calm,-,N/A,,Clear,0,2012-09-14 11:55:00
7:15 AM,40.6,39.9,97,30.31,10.0,Calm,Calm,-,N/A,,Clear,0,2012-09-14 12:15:00
7:35 AM,43.3,42.8,98,30.32,10.0,SW,3.5,-,N/A,,Clear,230,2012-09-14 12:35:00
7:55 AM,47.5,44.8,90,30.32,10.0,Calm,Calm,-,N/A,,Clear,0,2012-09-14 12:55:00
8:15 AM,49.1,45.1,86,30.32,10.0,Calm,Calm,-,N/A,,Clear,0,2012-09-14 13:15:00
8:35 AM,50.5,44.8,81,30.33,10.0,Calm,Calm,-,N/A,,Clear,0,2012-09-14 13:35:00
8:55 AM,52.3,43.7,72,30.33,10.0,Calm,Calm,-,N/A,,Clear,0,2012-09-14 13:55:00
9:15 AM,53.6,43.5,69,30.33,10.0,NW,3.5,-,N/A,,Clear,320,2012-09-14 14:15:00
9:35 AM,54.9,43.2,65,30.33,10.0,NW,3.5,-,N/A,,Clear,320,2012-09-14 14:35:00
9:55 AM,57.2,41.5,56,30.33,10.0,North,4.6,-,N/A,,Clear,350,2012-09-14 14:55:00
10:15 AM,59.2,40.1,49,30.33,10.0,NE,5.8,-,N/A,,Clear,40,2012-09-14 15:15:00
10:35 AM,59.7,39.2,47,30.33,10.0,North,5.8,-,N/A,,Clear,10,2012-09-14 15:35:00
10:55 AM,61.0,38.5,43,30.33,10.0,NNW,6.9,-,N/A,,Clear,330,2012-09-14 15:55:00
11:15 AM,61.5,38.7,43,30.33,10.0,WNW,3.5,-,N/A,,Clear,300,2012-09-14 16:15:00
11:35 AM,63.5,37.2,38,30.33,10.0,WNW,5.8,-,N/A,,Clear,300,2012-09-14 16:35:00
11:55 AM,63.9,37.2,37,30.32,10.0,West,6.9,-,N/A,,Clear,280,2012-09-14 16:55:00
12:15 PM,64.2,36.3,36,30.32,10.0,NW,5.8,-,N/A,,Clear,310,2012-09-14 17:15:00
12:35 PM,64.0,37.0,37,30.32,10.0,NW,9.2,-,N/A,,Clear,310,2012-09-14 17:35:00
12:55 PM,64.6,37.0,36,30.31,10.0,Calm,Calm,-,N/A,,Clear,0,2012-09-14 17:55:00
1:15 PM,65.3,37.6,36,30.31,10.0,North,5.8,-,N/A,,Clear,360,2012-09-14 18:15:00
1:35 PM,66.6,36.7,33,30.30,10.0,NW,8.1,-,N/A,,Clear,310,2012-09-14 18:35:00
1:55 PM,66.4,35.6,32,30.30,10.0,WNW,6.9,-,N/A,,Clear,300,2012-09-14 18:55:00
2:15 PM,66.7,35.6,32,30.30,10.0,WNW,6.9,-,N/A,,Clear,300,2012-09-14 19:15:00
2:35 PM,67.6,35.1,30,30.29,10.0,WNW,6.9,-,N/A,,Clear,300,2012-09-14 19:35:00
2:55 PM,67.8,35.2,30,30.29,10.0,WNW,8.1,-,N/A,,Clear,290,2012-09-14 19:55:00
3:15 PM,68.5,35.4,30,30.29,10.0,West,8.1,-,N/A,,Clear,280,2012-09-14 20:15:00
3:35 PM,68.2,34.3,29,30.28,10.0,WNW,8.1,-,N/A,,Clear,300,2012-09-14 20:35:00
3:55 PM,68.2,33.6,28,30.28,10.0,West,9.2,-,N/A,,Clear,280,2012-09-14 20:55:00
4:15 PM,68.7,34.3,28,30.28,10.0,West,6.9,-,N/A,,Clear,260,2012-09-14 21:15:00
4:35 PM,68.9,35.1,29,30.28,10.0,WNW,8.1,-,N/A,,Clear,290,2012-09-14 21:35:00
4:55 PM,68.9,34.2,28,30.28,10.0,WNW,4.6,-,N/A,,Clear,290,2012-09-14 21:55:00
5:15 PM,68.5,33.8,28,30.28,10.0,West,8.1,-,N/A,,Clear,270,2012-09-14 22:15:00
5:35 PM,68.4,33.8,28,30.28,10.0,West,4.6,-,N/A,,Clear,270,2012-09-14 22:35:00
5:55 PM,68.0,33.6,28,30.28,10.0,West,6.9,-,N/A,,Clear,270,2012-09-14 22:55:00
6:15 PM,67.5,34.0,29,30.28,10.0,West,3.5,-,N/A,,Clear,280,2012-09-14 23:15:00
6:35 PM,66.6,35.1,31,30.28,10.0,Calm,Calm,-,N/A,,Clear,0,2012-09-14 23:35:00
6:55 PM,65.8,36.7,34,30.28,10.0,Calm,Calm,-,N/A,,Clear,0,2012-09-14 23:55:00
7:15 PM,60.6,39.7,46,30.28,10.0,Calm,Calm,-,N/A,,Clear,0,2012-09-15 00:15:00
7:35 PM,58.3,40.5,52,30.29,10.0,Calm,Calm,-,N/A,,Clear,0,2012-09-15 00:35:00
7:55 PM,55.9,41.2,58,30.29,10.0,Calm,Calm,-,N/A,,Clear,0,2012-09-15 00:55:00
8:15 PM,49.8,40.6,71,30.30,10.0,NE,3.5,-,N/A,,Clear,50,2012-09-15 01:15:00
8:35 PM,51.4,41.2,68,30.30,10.0,Calm,Calm,-,N/A,,Clear,0,2012-09-15 01:35:00
8:55 PM,51.3,41.5,69,30.30,10.0,Calm,Calm,-,N/A,,Clear,0,2012-09-15 01:55:00
9:15 PM,49.3,40.5,72,30.30,10.0,Calm,Calm,-,N/A,,Clear,0,2012-09-15 02:15:00
9:35 PM,48.4,40.5,74,30.30,10.0,Calm,Calm,-,N/A,,Clear,0,2012-09-15 02:35:00
9:55 PM,45.1,40.6,84,30.30,10.0,Calm,Calm,-,N/A,,Clear,0,2012-09-15 02:55:00
10:15 PM,45.3,40.3,83,30.30,10.0,Calm,Calm,-,N/A,,Clear,0,2012-09-15 03:15:00
10:35 PM,44.1,40.1,86,30.30,10.0,Calm,Calm,-,N/A,,Clear,0,2012-09-15 03:35:00
10:55 PM,45.0,39.6,81,30.31,10.0,Calm,Calm,-,N/A,,Clear,0,2012-09-15 03:55:00
11:35 PM,41.5,38.8,90,30.31,10.0,NNE,4.6,-,N/A,,Clear,30,2012-09-15 04:35:00
11:55 PM,41.4,38.7,90,30.31,10.0,Calm,Calm,-,N/A,,Clear,0,2012-09-15 04:55:00